Location: La Fredeussais
(48.1780°N, 1.3980°W)
Time: 12:11:16
(UTC+00:00)

PRISM - Pass Details

Date: 31 October 2021
Orbit: 561 x 584 km, 98.2° (Epoch: 29 November)

Event Time Altitude Azimuth Distance (km) Brightness Sun altitude
Rises 05:29:55 0° 359° (N) 2,796 ? -13.7°
Reaches altitude 10° 05:32:45 10° 338° (NNW) 1,887 ? -13.2°
Enters shadow 05:34:42 16° 309° (NW) 1,551 ? -12.9°
